This is the latest recevied weather packets stored in our database for station/object KM4KMS. If no packets are shown the sender has not sent any weather packets the latest 10 day(s).
| Time | Temp. | Humidity | Pressure | Rain* | Wind** | Luminosity | Snow |
|---|---|---|---|---|---|---|---|
| 1778140030 | 8.33° C | 89% | 1013.7 hPa | 0 mm | - | 0 W/m² | - |
| 1778139729 | 7.78° C | 89% | 1013.6 hPa | 0 mm | - | 0 W/m² | - |
| 1778139425 | 7.78° C | 91% | 1013.8 hPa | 0 mm | - | 0 W/m² | - |
| 1778139121 | 7.78° C | 93% | 1013.8 hPa | 0 mm | - | 0 W/m² | - |
| 1778138819 | 7.78° C | 92% | 1013.7 hPa | 0 mm | - | 0 W/m² | - |
| 1778138516 | 8.33° C | 90% | 1013.7 hPa | 0 mm | - | 0 W/m² | - |
| 1778138214 | 8.33° C | 87% | 1013.8 hPa | 0 mm | - | 0 W/m² | - |
| 1778137910 | 8.33° C | 86% | 1013.6 hPa | 0 mm | - | 0 W/m² | - |
| 1778137607 | 8.33° C | 87% | 1013.8 hPa | 0 mm | - | 0 W/m² | - |
| 1778137304 | 8.33° C | 89% | 1013.9 hPa | 0 mm | - | 0 W/m² | - |
| 1778137000 | 7.78° C | 90% | 1013.6 hPa | 0 mm | - | 0 W/m² | - |
| 1778136697 | 7.78° C | 92% | 1013.8 hPa | 0 mm | - | 0 W/m² | - |
| 1778136395 | 7.78° C | 92% | 1013.9 hPa | 0 mm | - | 0 W/m² | - |
| 1778136093 | 7.78° C | 94% | 1013.9 hPa | 0 mm | - | 0 W/m² | - |
| 1778135791 | 7.78° C | 94% | 1014 hPa | 0 mm | - | 0 W/m² | - |
| 1778135487 | 7.78° C | 92% | 1014 hPa | 0 mm | - | 0 W/m² | - |
| 1778135184 | 8.33° C | 91% | 1013.8 hPa | 0 mm | - | 0 W/m² | - |
| 1778134882 | 8.89° C | 88% | 1013.9 hPa | 0 mm | - | 0 W/m² | - |
| 1778134579 | 8.89° C | 87% | 1014 hPa | 0 mm | - | 0 W/m² | - |
| 1778134277 | 8.89° C | 88% | 1013.9 hPa | 0 mm | - | 0 W/m² | - |
| 1778133975 | 8.89° C | 86% | 1014.1 hPa | 0 mm | - | 0 W/m² | - |
| 1778133671 | 8.89° C | 86% | 1014.1 hPa | 0 mm | - | 0 W/m² | - |
| 1778133367 | 8.89° C | 86% | 1014 hPa | 0 mm | - | 0 W/m² | - |
| 1778133063 | 8.89° C | 86% | 1014 hPa | 0 mm | - | 0 W/m² | - |
| 1778132759 | 8.89° C | 85% | 1014.1 hPa | 0 mm | - | 0 W/m² | - |
* Rain latest hour (hover to see other rain measurements)
** Current wind speed in m/s (hover to see current wind gust speed)